MOLNIYA 1-88

Last updated on Mon Jun 26 2023 00:03:02 GMT+0000 (Coordinated Universal Time)

1 23420U 94081A 23176.29324570 .00000073 00000+0 00000+0 0 9992 2 23420 64.3042 113.4945 5826345 276.1058 24.1924 3.34496874259412
UTC large
Height (km)
Speed (km/s)
/
Latitude / Longitude
Inclination (degrees)
Orbital Period (minutes)
Azimuth
Elevation
Range (km)
Doppler Factor

Next 0 passes for location: London (51.5072 / 0.1276)

Sorry there are no passes over London.
MOLNIYA 1-88